7 * 24
多渠道服务支持
STARLINK-2569是美国太空探索技术公司(SpaceX)星链(Starlink)星座的成员,于2021年4月29日成功发射。作为星链低轨互联网星座的一员,它运行在近地轨道,依托星链整体组网架构,为全球偏远地区、海洋空域等场景提供高速卫星互联网接入服务,支撑宽带通信、应急联网等多元应用,是SpaceX打造全球卫星互联网布局的重要组成部分。
美国
(US)
| 数据来源 | 国际轨道数据 |
| 星历时间: | 2026-09-11T07:17:15+0800 12小时前 查看轨道信息 |
| 半长轴: | 6828.46km |
| 偏心率: | 0.0004413 |
| 轨道倾角: | 53.120° |
| 近地点辐角 | 62.505° |
| 升交点赤经 | 228.215° |
| 平近点角 | 297.640° |
| 近地点: | 447.309km |
| 远地点: | 453.337km |
| 周期: | 93.593分钟 |
| 每日圈数: | 15.385748 |